This is the latest recevied weather packets stored in our database for station/object W9GWP. If no packets are shown the sender has not sent any weather packets the latest 10 day(s).
| Time | Temp. | Humidity | Pressure | Rain* | Wind** | Luminosity | Snow |
|---|---|---|---|---|---|---|---|
| 1777418065 | 17.22° C | 56% | 1041.3 hPa | 0 mm | - | 72 W/m² | - |
| 1777417159 | 17.78° C | 56% | 1041 hPa | 0 mm | - | 242 W/m² | - |
| 1777416259 | 17.78° C | 55% | 1040.9 hPa | 0 mm | - | 240 W/m² | - |
| 1777415356 | 17.78° C | 56% | 1041.5 hPa | 0 mm | - | 329 W/m² | - |
| 1777414452 | 17.78° C | 55% | 1041.5 hPa | 0 mm | - | 239 W/m² | - |
| 1777413548 | 17.22° C | 57% | 1041.9 hPa | 0 mm | - | 399 W/m² | - |
| 1777412644 | 17.78° C | 58% | 1041.6 hPa | 0 mm | - | 480 W/m² | - |
| 1777411743 | 16.67° C | 59% | 1041.9 hPa | 0 mm | - | 248 W/m² | - |
| 1777410837 | 17.22° C | 60% | 1041.9 hPa | 0 mm | - | 237 W/m² | - |
| 1777409938 | 16.67° C | 61% | 1042.2 hPa | 0 mm | - | 246 W/m² | - |
| 1777409036 | 17.22° C | 59% | 1042 hPa | 0 mm | - | 286 W/m² | - |
| 1777408136 | 16.67° C | 60% | 1042.1 hPa | 0 mm | - | 635 W/m² | - |
| 1777407234 | 16.67° C | 62% | 1042.3 hPa | 0 mm | - | 630 W/m² | - |
| 1777406332 | 16.11° C | 63% | 1042.5 hPa | 0 mm | - | 399 W/m² | - |
| 1777405430 | 16.67° C | 65% | 1042.6 hPa | 0 mm | - | 623 W/m² | - |
| 1777404529 | 15.56° C | 65% | 1042.9 hPa | 0 mm | - | 630 W/m² | - |
| 1777403626 | 15° C | 66% | 1042.5 hPa | 0 mm | - | 396 W/m² | - |
| 1777402722 | 15° C | 68% | 1043.3 hPa | 0 mm | - | 614 W/m² | - |
| 1777401817 | 15.56° C | 66% | 1043.1 hPa | 0 mm | - | 174 W/m² | - |
| 1777400914 | 15° C | 67% | 1043.5 hPa | 0 mm | - | 247 W/m² | - |
| 1777400015 | 14.44° C | 67% | 1043.4 hPa | 0 mm | - | 510 W/m² | - |
| 1777399113 | 14.44° C | 67% | 1042.9 hPa | 0 mm | - | 864 W/m² | - |
| 1777398209 | 15° C | 66% | 1043 hPa | 0 mm | - | 327 W/m² | - |
| 1777397310 | 13.89° C | 71% | 1042.7 hPa | 0 mm | - | 344 W/m² | - |
| 1777396406 | 14.44° C | 70% | 1042.7 hPa | 0 mm | - | 303 W/m² | - |
* Rain latest hour (hover to see other rain measurements)
** Current wind speed in m/s (hover to see current wind gust speed)